Startpagina
METAR-TAF:

METAR-TAF

Vliegvelden :

Macas, Ecuador

breedte: 02-17-57-S, lengte: 078-07-15-W, hoogte: 1052 m

Actueel weer

Dit bericht is 1 uur en het 8 minuten geleden gemaakt, om 22:00 UTC
Wind 6 kt uit het zuidzuidwesten
Temperatuur 22°C
Vochtigheid 83%
Druk 1016 hPa
Zicht 10 km of meer
Verspreide wolken op 3000 ft

METAR: SEMC 222200Z 21006KT 9999 SCT030 22/19 Q1016 RMK A3001

Tijdstip: 18:08 (23:08 UTC)


TAF: ontbreekt

Waarnemingen en weersverwachtingen van meer dan 4000 vliegvelden (METAR en TAF).

De beschikbare stations zijn de gele en rode punten op de kaart.

Ga met uw muis naar het station om de naam te zien.

Klik dan om waarnemingen en weersverwachtingen te zien.

kaart wijzigen: klik op de groene knoppen met een zwart kruis om in te zoomen, op de groene knop met een streepje om uit te zoomen of op de groene pijlen voor aangrenzende kaarten.


METAR-TAF: